All
Munjina Airport YMUJ Weather
There is no TAF data available at YMUJ. Showing TAF data for YKDD (27 mi SE).
OOD Terminal Area Forecast (no data for YMUJ)
| Date | Time (AWST) | Flight Rules | Wind Dir. | Speed | Type | Height AGL (ft) | Visibility | Remarks | ||||||
|---|---|---|---|---|---|---|---|---|---|---|---|---|---|---|
| 05-May | 05:00PM | VFR | 120° | 14 kt | Clouds and Visibility are OK | >= 6 miles | ||||||||
There is no METAR data available at YMUJ. Showing METAR data for YKDD (27 mi SE).
Recent OOD METAR history (no data for YMUJ)
| Date | Time (AWST) | Flight Rules | Wind Dir. | Speed | Type | Height AGL (ft) | Visibility | Temp (°C) | Temp (°F) | Dew Point (°C) | Dew Point (°F) | Rel. Humid. | Pressure | Density Altitude | Remarks |
|---|---|---|---|---|---|---|---|---|---|---|---|---|---|---|---|
| 05-May | 05:00PM | VFR | 130° | 11 kt | 10000 meters | 25° | 77° | -2° | 28° | 17% | 1018 mb | 2,759 ft | |||
| 05-May | 04:00PM | VFR | 110° | 13 kt | 10000 meters | 26° | 78° | 0° | 32° | 18% | 1017 mb | 2,909 ft | |||
| 05-May | 03:00PM | VFR | 120° | 9 kt | 10000 meters | 25° | 77° | -1° | 30° | 18% | 1017 mb | 2,789 ft | |||
| 05-May | 02:00PM | VFR | 140° | 10 kt | 10000 meters | 25° | 77° | 0° | 32° | 19% | 1018 mb | 2,759 ft | |||
| 05-May | 01:00PM | VFR | 90° | 8 kt | 10000 meters | 24° | 75° | 0° | 32° | 20% | 1018 mb | 2,639 ft | |||
| 05-May | 12:00PM | VFR | 100° | 10 kt | 10000 meters | 23° | 73° | 0° | 32° | 22% | 1019 mb | 2,490 ft | |||
| 05-May | 11:00AM | VFR | 120° | 12 kt | 10000 meters | 22° | 71° | 1° | 33° | 25% | 1020 mb | 2,340 ft | |||
| 05-May | 10:00AM | VFR | 110° | 16 kt | 10000 meters | 21° | 69° | 2° | 35° | 28% | 1021 mb | 2,190 ft | |||
| 05-May | 09:00AM | VFR | 110° | 14 kt | 10000 meters | 19° | 66° | 2° | 35° | 32% | 1022 mb | 1,921 ft | |||
| 05-May | 08:00AM | VFR | 120° | 17 kt | 10000 meters | 18° | 64° | 3° | 37° | 37% | 1021 mb | 1,830 ft | |||
| 05-May | 07:00AM | VFR | 130° | 13 kt | 10000 meters | 16° | 60° | 3° | 37° | 42% | 1021 mb | 1,590 ft | |||
| 05-May | 06:00AM | VFR | 120° | 11 kt | 10000 meters | 16° | 60° | 2° | 35° | 39% | 1020 mb | 1,620 ft | |||
| 05-May | 05:00AM | VFR | 120° | 12 kt | 10000 meters | 16° | 60° | 2° | 35° | 39% | 1020 mb | 1,620 ft | |||
| 05-May | 04:00AM | VFR | 120° | 13 kt | 10000 meters | 17° | 62° | 1° | 33° | 34% | 1019 mb | 1,770 ft | |||
| 05-May | 03:00AM | VFR | 120° | 14 kt | 10000 meters | 16° | 60° | 0° | 32° | 34% | 1019 mb | 1,650 ft | |||
| 05-May | 02:00AM | VFR | 120° | 14 kt | 10000 meters | 18° | 64° | 0° | 32° | 30% | 1019 mb | 1,890 ft | |||
| 05-May | 01:00AM | VFR | 120° | 12 kt | 10000 meters | 18° | 64° | -1° | 30° | 28% | 1020 mb | 1,860 ft | |||
| 05-May | 12:00AM | VFR | 120° | 11 kt | 10000 meters | 19° | 66° | -2° | 28° | 24% | 1020 mb | 1,980 ft | |||
| 04-May | 11:00PM | VFR | 130° | 13 kt | 10000 meters | 20° | 68° | -2° | 28° | 23% | 1020 mb | 2,100 ft | |||
| 04-May | 10:00PM | VFR | 120° | 11 kt | 10000 meters | 21° | 69° | -1° | 30° | 23% | 1020 mb | 2,220 ft | |||
| 04-May | 09:00PM | VFR | 120° | 9 kt | 10000 meters | 22° | 71° | 0° | 32° | 23% | 1020 mb | 2,340 ft | |||
| 04-May | 08:00PM | VFR | 130° | 10 kt | 10000 meters | 23° | 73° | 0° | 32° | 22% | 1020 mb | 2,460 ft | |||
| 04-May | 07:00PM | VFR | 120° | 7 kt | 10000 meters | 23° | 73° | 1° | 33° | 23% | 1019 mb | 2,490 ft | |||
| 04-May | 06:00PM | VFR | 110° | 10 kt | 10000 meters | 25° | 77° | 2° | 35° | 22% | 1018 mb | 2,759 ft |
Login
| Your browser is unsupported. upgrade your browser |
